Regional Weather Roundup
Issued by NWS Albany, NY

Home | Current Version | Previous Version | Graphics & Text | Print | Product List | Glossary Off
Versions: 1 2 3 4 5 6 7 8 9 10 11 12 13 14 15 16 17 18 19 20 21 22 23 24 25 26 27 28

000
ASUS41 KALY 212310
RWRALY

NEW YORK STATE HOURLY WEATHER ROUNDUP
NATIONAL WEATHER SERVICE ALBANY NY
700 PM EDT TUE OCT 21 2014

NOTE: "FAIR" INDICATES FEW OR NO CLOUDS BELOW 12,000 FEET WITH NO
SIGNIFICANT WEATHER AND/OR NO OBSTRUCTIONS TO VISIBILITY.

NYZ032-033-038>043-046>054-057>066-NYZ062>081-220000-
EAST


CITY           SKY/WX    TMP DP  RH WIND       PRES   REMARKS
ALBANY         CLOUDY    53  49  86 N6        29.95R
GLENS FALLS    CLOUDY    50  46  86 N8        29.98R
POUGHKEEPSIE   PTCLDY    52  50  93 CALM      29.89R
NEWBURGH       MOCLDY    52  50  93 CALM      29.91R
MONTGOMERY     PTCLDY    51  48  89 NE7       29.89R
WHITE PLAINS   MOCLDY    58  53  84 N6        29.87R
ISLIP          MOCLDY    57  53  86 E5        29.84R
NEW YORK CITY  MOCLDY    63  52  67 E9        29.86R
CENTRAL PARK   CLOUDY    62  53  72 E6        29.88R
$$

NYZ005>009-017-018-044>046-055-056-220000-
CENTRAL


CITY           SKY/WX    TMP DP  RH WIND       PRES   REMARKS
FULTON         LGT RAIN  50  48  93 N7        29.96R FOG
SYRACUSE       DRIZZLE   52  50  93 CALM      29.94R
ROME           CLOUDY    52  48  86 CALM      29.95R
ELMIRA         LGT RAIN  52  50  93 CALM      29.91R
BINGHAMTON     CLOUDY    51  47  86 CALM      29.90R
MONTICELLO     CLOUDY    50  48  93 E3        29.91R
$$

NYZ026>034-041>043-220000-
NORTH


CITY           SKY/WX    TMP DP  RH WIND       PRES   REMARKS
WATERTOWN      CLOUDY    47  41  80 NE14      30.01R
FORT DRUM      NOT AVBL
MASSENA        CLOUDY    45  37  73 NE13      30.09R
SARANAC LAKE   CLOUDY    42  41  96 NE10      29.99R FOG
PLATTSBURGH    CLOUDY    46  44  93 N14       30.05R
$$

NYZ001>004-010>016-019>021-220000-
WEST


CITY           SKY/WX    TMP DP  RH WIND       PRES   REMARKS
NIAGARA FALLS  LGT RAIN  46  44  93 NE14G21   30.01R FOG
BUFFALO        DRIZZLE   47  44  90 N14G21    29.99R
DUNKIRK        CLOUDY    49  47  93 N14G22    29.98R
JAMESTOWN      CLOUDY    46  45  93 N8        29.95R
WELLSVILLE     LGT RAIN  48  45  89 NW6       29.94R
ROCHESTER      LGT RAIN  49  47  93 NE18G26   29.98R FOG
PENN YAN       LGT RAIN  51  49  92 CALM      29.94R
$$

             KEY
       WCI = WIND CHILL INDEX
       VSB = VISIBILITY
       HX  = HEAT INDEX
$$



USA.gov is the U.S. government's official web portal to all federal, state and local government web resources and services.